Retour au catalogue

KUIPER-00057

ActifCommunicationsLEO
NORAD 64517·PAYLOAD·🇺🇸 United States

Lancé Jun 23, 2025 depuis Cape Canaveral Space Force Station

Loading…

Prochains Passages (prochaines 24 heures)

TLE

FraisSource: CelesTrak SupGP

Époque: Sep 14, 2026, 22:38 UTC

1 64517C 25134T   26257.94369213  .00002351  00000+0  30776-3 0  2570
2 64517  51.8976 113.6891 0000824 104.0775 207.0555 14.79927054    11

Suivez KUIPER-00057 en temps réel avec AllMySat

Download on the App Store